Location: New Canada
(47.1017°N, 68.5042°W)
Time: 23:11:37
(UTC+00:00)

RS-44 - Pass Details

Date: 02 April 2023
Orbit: 1175 x 1510 km, 82.5° (Epoch: 02 June)

Event Time Altitude Azimuth Distance (km) Brightness Sun altitude
Rises 06:00:59 0° 349° (NNW) 4,389 ? -34.9°
Reaches altitude 10° 06:03:43 10° 347° (NNW) 3,455 ? -34.7°
Enters shadow 06:11:48 74° 277° (W) 1,500 ? -34.1°
